Mountain View, CA

6:26 PM PST on February 24, 2017 (GMT -0800)
Moffett Federal Air Field

Weather History for KNUQ - February, 2013

Change the Weather History Date:

Thursday, February 28, 2013

  Actual Average Record
Temperature  
Mean Temperature 54 °F 55 °F  
Max Temperature 64 °F 64 °F 77 °F (1992)
Min Temperature 44 °F 47 °F 32 °F (1955)
Degree Days  
Heating Degree Days 11    
Month to date heating degree days 391  
Since 1 July heating degree days 1677  
Cooling Degree Days 0    
Month to date cooling degree days 0  
Year to date cooling degree days 0  
Growing Degree Days 5 (Base 50)    
Moisture  
Dew Point 48 °F    
Average Humidity 76    
Maximum Humidity 96    
Minimum Humidity 56    
Precipitation  
Precipitation 0.00 in 0.11 in 1.09 in (1983)
Month to date precipitation 0.42 3.07  
Year to date precipitation 0.72 5.82  
Since 1 July precipitation 8.49  
Sea Level Pressure  
Sea Level Pressure 30.44 in    
Wind  
Wind Speed 5 mph (NNW)    
Max Wind Speed 16 mph    
Max Gust Speed 20 mph    
Visibility 10 miles    
Events      
T = Trace of Precipitation, MM = Missing Value Source: NWS Daily Summary

Daily Weather History Graph

Daily Weather History Graph

Search for Another Location

Airport or City:

Trip Planner

Search our weather history database for the weather conditions in past years. The results will help you decide how hot, cold, wet, or windy it might be!

Date:

Astronomy

Feb. 28, 2013 Rise Set
Actual Time 6:40 AM PST 6:01 PM PST
Civil Twilight 6:14 AM PST 6:27 PM PST
Nautical Twilight 5:43 AM PST 6:57 PM PST
Astronomical Twilight 5:13 AM PST 7:28 PM PST
Moon 9:28 PM PST (2/28) 7:58 AM PST (2/28)
Length of Visible Light 12h 13m
Length of Day
11h 21m
Waning Gibbous, 90% of the Moon is Illuminated
Feb 28
Waning Gibbous
Mar 4
Last Quarter
Mar 11
New
Mar 19
First Quarter
Mar 27
Full

Hourly Weather History & Observations

Time (PST) Temp. Dew Point Humidity Pressure Visibility Wind Dir Wind Speed Gust Speed Precip Events Conditions
12:56 AM 50.0 °F 46.9 °F 89% 30.41 in 10.0 mi Calm Calm - N/A   Clear
1:56 AM 48.9 °F 46.0 °F 90% 30.41 in 10.0 mi Calm Calm - N/A   Clear
2:56 AM 48.0 °F 44.1 °F 86% 30.40 in 10.0 mi Calm Calm - N/A   Clear
3:56 AM 46.0 °F 43.0 °F 89% 30.40 in 10.0 mi Calm Calm - N/A   Clear
4:56 AM 46.0 °F 42.1 °F 86% 30.41 in 10.0 mi Calm Calm - N/A   Clear
5:56 AM 46.9 °F 42.1 °F 83% 30.43 in 10.0 mi West 3.5 mph - N/A   Clear
6:56 AM 46.9 °F 43.0 °F 86% 30.43 in 10.0 mi Calm Calm - N/A   Clear
7:56 AM 50.0 °F 46.0 °F 86% 30.46 in 10.0 mi Calm Calm - N/A   Clear
8:56 AM 54.0 °F 48.0 °F 80% 30.47 in 10.0 mi Calm Calm - N/A   Clear
9:56 AM 59.0 °F 48.0 °F 67% 30.48 in 10.0 mi North 5.8 mph - N/A   Clear
10:56 AM 60.1 °F 48.0 °F 64% 30.47 in 10.0 mi NNW 8.1 mph - N/A   Clear
11:56 AM 62.1 °F 50.0 °F 65% 30.46 in 10.0 mi North 8.1 mph - N/A   Clear
12:56 PM 64.0 °F 48.0 °F 56% 30.43 in 10.0 mi North 9.2 mph - N/A   Clear
1:56 PM 63.0 °F 48.9 °F 60% 30.43 in 10.0 mi North 15.0 mph - N/A   Clear
2:56 PM 63.0 °F 51.1 °F 65% 30.42 in 10.0 mi NNW 13.8 mph - N/A   Clear
3:56 PM 63.0 °F 51.1 °F 65% 30.41 in 10.0 mi NNW 12.7 mph - N/A   Clear
4:56 PM 60.1 °F 51.1 °F 72% 30.41 in 10.0 mi North 11.5 mph - N/A   Clear
5:56 PM 57.0 °F 51.1 °F 81% 30.41 in 10.0 mi North 6.9 mph - N/A   Clear
6:56 PM 55.9 °F 52.0 °F 87% 30.43 in 10.0 mi NNW 8.1 mph - N/A   Clear
7:56 PM 54.0 °F 51.1 °F 90% 30.45 in 10.0 mi North 8.1 mph - N/A   Clear
8:56 PM 52.0 °F 50.0 °F 93% 30.46 in 10.0 mi North 4.6 mph - N/A   Clear
9:56 PM 52.0 °F 50.0 °F 93% 30.47 in 10.0 mi Calm Calm - N/A   Clear
10:56 PM 52.0 °F 50.0 °F 93% 30.47 in 10.0 mi Calm Calm - N/A   Clear
11:56 PM 52.0 °F 50.0 °F 93% 30.46 in 10.0 mi Calm Calm - N/A   Clear